Погода в Костине

Россия / Владимирская область     55°59′15″N   39°21′29″E
темп.,
°C
ветер,
м/с
пор.,
м/с
влажн.,
%
обл.,
%
осадки,
мм/ч
давл.,
гПа
погр.,
м
14 июня, пн
пн1400:00+14ююз12951 0.0 101012
03:00+13ююз22960 0.0 101116
06:00+16ююз12880 0.0 101299
09:00+22ююз23635 0.0 1014684
12:00+25юз234918 0.0 10141762
15:00+23юз1266100 0.0 101495
18:00+21ююв117598 0.1 101411
21:00+19ююз0078100 0.1 101411
15 июня, вт
вт1500:00+17юз118930 0.6 101411
03:00+15з11948 0.6 101411
06:00+18юз11925 0.4 101471
09:00+22зюз12784 1.5 1013256
12:00+25юз125971 1.6 10121108
15:00+24сз336354 2.8 1011663
18:00+23юв128318 1.9 101081
21:00+18з118824 2.3 101011
16 июня, ср
ср1600:00+16зюз1195100 2.5 101011
03:00+16сз1297100 2.7 100921
06:00+17сз269795 0.6 1010223
09:00+21ссз576552 1.0 1010697
12:00+22ссз575667 0.0 10121277
15:00+21ссз575680 0.2 10131561
18:00+20ссз58535 0.0 1015932
21:00+14ссз2676100 0.0 1017134
17 июня, чт
чт1700:00+13ссз397313 0.0 1019175
03:00+11с36705 0.0 1021112
06:00+13ссз25685 0.0 1022121
09:00+19ссз34480 0.0 1023732
12:00+22с35380 0.0 10241817
15:00+23ссз35395 0.0 10232243
18:00+22ссв235347 0.0 10241209
21:00+17ссз117112 0.0 102513
18 июня, пт
пт1800:00+13с11815 0.0 102510
03:00+13зсз11814 0.0 102711
06:00+16сз12740 0.0 102769
09:00+22зсз22540 0.0 1027565
12:00+25з22420 0.0 10261752
15:00+26з23405 0.0 10251928
18:00+25зсз23545 0.0 1025723
21:00+18зюз24815 0.0 102671